Back to catalog

STARLINK-38128

AliveCommunicationsVLEO
NORAD 100001·PAYLOAD·🇺🇸 United States

Launched Jul 14, 2026 from Vandenberg Space Force Base

Loading…

Next Passes (next 24 hours)

TLE

FreshSource: Space-Track

Epoch: Sep 14, 2026, 14:23 UTC

1 A0001U 26160A   26257.59997283 -.00153500  00000-0 -95134-3 0  9991
2 A0001  70.0025 211.5852 0005315 294.6688  65.3958 15.77162661 11064

Track STARLINK-38128 in real time with AllMySat

Download on the App Store